| time (UTC) | temp F | wind direction | speed knots | gust knots | rain 1hr in | rain 24hr in | rain mn in | humidity % | barometer mb |
| 20260505035855 | 64 | 188 | 0.0 | 0.0 | 0.00 | 0.00 | 0.00 | 54 | 1012.0 |
| 20260505034855 | 64 | 192 | 0.0 | 0.0 | 0.00 | 0.00 | 0.00 | 53 | 1011.8 |
| 20260505033854 | 64 | 180 | 0.0 | 0.0 | 0.00 | 0.00 | 0.00 | 53 | 1011.6 |
| 20260505032849 | 65 | 190 | 0.0 | 0.0 | 0.00 | 0.00 | 0.00 | 52 | 1011.7 |
| 20260505031848 | 65 | 177 | 0.0 | 0.0 | 0.00 | 0.00 | 0.00 | 52 | 1011.8 |
| 20260505030848 | 65 | 185 | 0.0 | 0.0 | 0.00 | 0.00 | 0.00 | 52 | 1011.8 |
| 20260505025845 | 64 | 180 | 0.0 | 0.0 | 0.00 | 0.00 | 0.00 | 53 | 1011.8 |
| 20260505024841 | 64 | 173 | 0.0 | 0.0 | 0.00 | 0.00 | 0.00 | 52 | 1011.6 |
| 20260505023841 | 64 | 188 | 0.0 | 0.0 | 0.00 | 0.00 | 0.00 | 53 | 1011.9 |
| 20260505022842 | 64 | 189 | 0.0 | 0.0 | 0.00 | 0.00 | 0.00 | 54 | 1011.8 |
| 20260505021842 | 64 | 182 | 0.0 | 0.0 | 0.00 | 0.00 | 0.00 | 55 | 1011.8 |
| 20260505020840 | 64 | 188 | 0.0 | 0.0 | 0.00 | 0.00 | 0.00 | 57 | 1011.6 |
| 20260505015838 | 64 | 180 | 0.0 | 0.0 | 0.00 | 0.00 | 0.00 | 56 | 1011.9 |
| 20260505014838 | 64 | 189 | 0.0 | 0.0 | 0.00 | 0.00 | 0.00 | 56 | 1011.5 |
| 20260505013837 | 64 | 191 | 0.0 | 0.0 | 0.00 | 0.00 | 0.00 | 56 | 1011.6 |
| 20260505012833 | 65 | 172 | 0.0 | 0.0 | 0.00 | 0.00 | 0.00 | 54 | 1011.5 |
| 20260505011832 | 65 | 171 | 0.0 | 0.0 | 0.00 | 0.00 | 0.00 | 53 | 1011.5 |
| 20260505010831 | 66 | 174 | 0.0 | 0.0 | 0.00 | 0.00 | 0.00 | 52 | 1011.4 |
| 20260505005829 | 66 | 168 | 0.9 | 0.9 | 0.00 | 0.00 | 0.00 | 50 | 1011.5 |
| 20260505004824 | 66 | 172 | 0.0 | 0.0 | 0.00 | 0.00 | 0.00 | 49 | 1011.3 |
| 20260505003823 | 66 | 158 | 0.9 | 0.9 | 0.00 | 0.00 | 0.00 | 49 | 1011.2 |
| 20260505002822 | 67 | 168 | 0.0 | 0.0 | 0.00 | 0.00 | 0.00 | 48 | 1011.1 |
| 20260505001818 | 69 | 184 | 0.0 | 0.0 | 0.00 | 0.00 | 0.00 | 45 | 1011.1 |
| 20260505000817 | 70 | 178 | 0.0 | 0.0 | 0.00 | 0.00 | 0.00 | 43 | 1011.2 |
| 20260504235817 | 71 | 183 | 0.0 | 0.0 | 0.00 | 0.00 | 0.00 | 41 | 1010.9 |
| 20260504234817 | 71 | 190 | 0.0 | 0.0 | 0.00 | 0.00 | 0.00 | 40 | 1011.0 |
| 20260504233816 | 72 | 186 | 0.0 | 0.0 | 0.00 | 0.00 | 0.00 | 39 | 1010.8 |
| 20260504232815 | 73 | 172 | 0.0 | 0.0 | 0.00 | 0.00 | 0.00 | 38 | 1010.8 |
| 20260504231815 | 73 | 188 | 0.0 | 0.0 | 0.00 | 0.00 | 0.00 | 37 | 1010.8 |
| 20260504230813 | 74 | 175 | 0.0 | 0.9 | 0.00 | 0.00 | 0.00 | 36 | 1010.7 |
| 20260504225810 | 75 | 198 | 0.0 | 0.9 | 0.00 | 0.00 | 0.00 | 36 | 1010.7 |
| 20260504224809 | 75 | 193 | 0.0 | 0.0 | 0.00 | 0.00 | 0.00 | 34 | 1010.7 |
| 20260504223808 | 77 | 158 | 0.9 | 0.9 | 0.00 | 0.00 | 0.00 | 34 | 1010.8 |
| 20260504222807 | 78 | 192 | 0.0 | 0.0 | 0.00 | 0.00 | 0.00 | 33 | 1010.8 |
| 20260504221801 | 78 | 204 | 0.9 | 0.9 | 0.00 | 0.00 | 0.00 | 32 | 1010.9 |
| 20260504220801 | 77 | 205 | 0.9 | 0.9 | 0.00 | 0.00 | 0.00 | 33 | 1011.1 |
| 20260504215755 | 77 | 195 | 0.0 | 0.0 | 0.00 | 0.00 | 0.00 | 32 | 1010.8 |
| 20260504214753 | 78 | 243 | 0.9 | 0.9 | 0.00 | 0.00 | 0.00 | 32 | 1010.9 |
| 20260504213753 | 79 | 219 | 0.0 | 0.0 | 0.00 | 0.00 | 0.00 | 32 | 1010.9 |
| 20260504212752 | 77 | 151 | 0.0 | 0.9 | 0.00 | 0.00 | 0.00 | 33 | 1010.9 |
| 20260504211752 | 79 | 205 | 0.9 | 1.7 | 0.00 | 0.00 | 0.00 | 31 | 1010.7 |
| 20260504210751 | 80 | 214 | 0.0 | 0.9 | 0.00 | 0.00 | 0.00 | 30 | 1010.9 |
| 20260504205751 | 79 | 220 | 0.0 | 0.0 | 0.00 | 0.00 | 0.00 | 31 | 1010.9 |
| 20260504204747 | 80 | 106 | 2.6 | 2.6 | 0.00 | 0.00 | 0.00 | 28 | 1010.9 |
| 20260504203744 | 80 | 145 | 1.7 | 1.7 | 0.00 | 0.00 | 0.00 | 27 | 1010.9 |
| 20260504202741 | 78 | 150 | 0.9 | 0.9 | 0.00 | 0.00 | 0.00 | 28 | 1010.9 |
| 20260504201735 | 80 | 152 | 1.7 | 1.7 | 0.00 | 0.00 | 0.00 | 28 | 1010.9 |
| 20260504200730 | 81 | 225 | 0.0 | 0.0 | 0.00 | 0.00 | 0.00 | 28 | 1011.2 |
| 20260504195728 | 80 | 228 | 0.0 | 0.9 | 0.00 | 0.00 | 0.00 | 27 | 1011.4 |
| 20260504194727 | 79 | 224 | 0.0 | 0.9 | 0.00 | 0.00 | 0.00 | 29 | 1011.4 |
| 20260504193726 | 80 | 226 | 0.9 | 0.9 | 0.00 | 0.00 | 0.00 | 28 | 1011.5 |
| 20260504192721 | 79 | 228 | 0.9 | 1.7 | 0.00 | 0.00 | 0.00 | 28 | 1011.5 |
| 20260504191718 | 80 | 179 | 0.0 | 0.9 | 0.00 | 0.00 | 0.00 | 29 | 1011.7 |
| 20260504190715 | 79 | 127 | 0.9 | 0.9 | 0.00 | 0.00 | 0.00 | 29 | 1011.8 |
| 20260504185714 | 80 | 218 | 0.9 | 0.9 | 0.00 | 0.00 | 0.00 | 29 | 1011.8 |
| 20260504184713 | 78 | 169 | 0.0 | 0.9 | 0.00 | 0.00 | 0.00 | 31 | 1012.0 |
| 20260504183711 | 78 | 179 | 2.6 | 3.5 | 0.00 | 0.00 | 0.00 | 29 | 1012.3 |
| 20260504182706 | 77 | 289 | 0.9 | 0.9 | 0.00 | 0.00 | 0.00 | 31 | 1012.4 |
| 20260504181707 | 76 | 347 | 0.9 | 1.7 | 0.00 | 0.00 | 0.00 | 31 | 1012.3 |
| 20260504180703 | 75 | 192 | 0.9 | 1.7 | 0.00 | 0.00 | 0.00 | 33 | 1012.5 |
| 20260504175658 | 75 | 226 | 0.9 | 0.9 | 0.00 | 0.00 | 0.00 | 33 | 1012.7 |
| 20260504174659 | 74 | 218 | 0.9 | 0.9 | 0.00 | 0.00 | 0.00 | 33 | 1012.7 |
| 20260504173658 | 73 | 253 | 1.7 | 1.7 | 0.00 | 0.00 | 0.00 | 34 | 1012.7 |
| 20260504172658 | 73 | 227 | 1.7 | 2.6 | 0.00 | 0.00 | 0.00 | 33 | 1013.1 |
| 20260504171657 | 72 | 291 | 1.7 | 2.6 | 0.00 | 0.00 | 0.00 | 34 | 1013.3 |
| 20260504170655 | 71 | 291 | 0.0 | 0.9 | 0.00 | 0.00 | 0.00 | 35 | 1013.3 |
| 20260504150630 | 66 | 332 | 0.9 | 0.9 | 0.00 | 0.00 | 0.00 | 40 | 1014.1 |
| 20260504140621 | 61 | 136 | 0.0 | 0.0 | 0.00 | 0.00 | 0.00 | 51 | 1014.5 |
| 20260504130608 | 58 | 285 | 0.9 | 1.7 | 0.00 | 0.00 | 0.00 | 54 | 1014.7 |
| 20260504110537 | 52 | 180 | 0.0 | 0.0 | 0.00 | 0.00 | 0.00 | 67 | 1015.7 |
| 20260504100522 | 52 | 182 | 0.0 | 0.0 | 0.00 | 0.00 | 0.00 | 69 | 1015.5 |
| 20260504081454 | 52 | 201 | 0.0 | 0.0 | 0.00 | 0.00 | 0.00 | 67 | 1015.8 |
| 20260504080452 | 52 | 187 | 0.0 | 0.0 | 0.00 | 0.00 | 0.00 | 67 | 1015.9 |
| 20260504050421 | 51 | 175 | 0.0 | 0.0 | 0.00 | 0.00 | 0.00 | 68 | 1016.1 |
| 20260504045419 | 51 | 175 | 0.0 | 0.0 | 0.00 | 0.00 | 0.00 | 67 | 1016.0 |
| 20260504044419 | 50 | 180 | 0.0 | 0.0 | 0.00 | 0.00 | 0.00 | 68 | 1016.3 |
| 20260504043419 | 49 | 188 | 0.0 | 0.0 | 0.00 | 0.00 | 0.00 | 70 | 1016.3 |
| 20260504042419 | 48 | 188 | 0.0 | 0.0 | 0.00 | 0.00 | 0.00 | 74 | 1016.3 |
| 20260504041418 | 47 | 215 | 0.0 | 0.0 | 0.00 | 0.00 | 0.00 | 76 | 1016.2 |
| 20260504040412 | 46 | 222 | 0.0 | 0.0 | 0.00 | 0.00 | 0.00 | 77 | 1016.2 |